Location: Bruch
(44.2051°N, 0.4120°E)
Time: 18:07:29
(UTC+00:00)

USA 81 - Pass Details

Date: 29 November 2020
Orbit: 783 x 791 km, 85.0° (Epoch: 30 November)

Event Time Altitude Azimuth Distance (km) Brightness Sun altitude
Rises 06:16:06 0° 179° (S) 3,256 7.6 -9.9°
Reaches altitude 10° 06:18:26 10° 178° (S) 2,332 6.8 -9.5°
Maximum altitude 06:23:39 78° 93° (E) 805 4.3 -8.6°
Drops below altitude 10° 06:28:56 10° 8° (N) 2,350 6.4 -7.7°
Sets 06:31:18 0° 7° (N) 3,283 7.1 -7.3°
